{"data":{"norad_id":56970,"epoch":"2026-05-24T23:07:04.914048Z","epoch_age_seconds":88652,"freshness":"FRESH","line1":"1 56970U 23084AQ  26144.96325132  .00012053  00000+0  33612-3 0  9990","line2":"2 56970  97.6259 288.2875 0009505  45.4156 314.7862 15.36874661164112","mean_motion":15.36874661,"eccentricity":0.0009505,"inclination_deg":97.6259,"raan_deg":288.2875,"arg_perigee_deg":45.4156,"mean_anomaly_deg":314.7862,"bstar":0.00033612,"rev_number":16411,"period_min":93.696645311533,"perigee_km":448.86266048385,"apogee_km":461.85313428377,"semimajor_km":6833.4948973838,"source":"CELESTRAK","updated_at":"2026-05-25T13:38:13.532157Z"}}